This is the latest recevied weather packets stored in our database for station/object N8AMF. If no packets are shown the sender has not sent any weather packets the latest 10 day(s).
| Time | Temp. | Humidity | Pressure | Rain* | Wind** | Luminosity | Snow |
|---|---|---|---|---|---|---|---|
| 1777941504 | 21.11° C | 51% | 1002 hPa | 0 mm | - | 1 W/m² | - |
| 1777941201 | 20.56° C | 52% | 1001.8 hPa | 0 mm | - | 2 W/m² | - |
| 1777940896 | 21.11° C | 52% | 1002 hPa | 0 mm | - | 3 W/m² | - |
| 1777940594 | 21.11° C | 50% | 1001.9 hPa | 0 mm | - | 5 W/m² | - |
| 1777940292 | 21.67° C | 50% | 1002 hPa | 0 mm | - | 6 W/m² | - |
| 1777939989 | 21.67° C | 49% | 1001.8 hPa | 0 mm | - | 8 W/m² | - |
| 1777939686 | 21.67° C | 49% | 1001.5 hPa | 0 mm | - | 10 W/m² | - |
| 1777939384 | 21.67° C | 50% | 1001.5 hPa | 0 mm | - | 12 W/m² | - |
| 1777939080 | 21.67° C | 49% | 1001.3 hPa | 0 mm | - | 14 W/m² | - |
| 1777938776 | 21.67° C | 51% | 1001.5 hPa | 0 mm | - | 17 W/m² | - |
| 1777938474 | 21.67° C | 50% | 1001.5 hPa | 0 mm | - | 19 W/m² | - |
| 1777938171 | 21.67° C | 53% | 1001.5 hPa | 0 mm | - | 21 W/m² | - |
| 1777937867 | 21.67° C | 53% | 1001.1 hPa | 0 mm | - | 27 W/m² | - |
| 1777937563 | 22.22° C | 53% | 1001.2 hPa | 0 mm | - | 33 W/m² | - |
| 1777937260 | 22.22° C | 53% | 1001.2 hPa | 0 mm | - | 40 W/m² | - |
| 1777936957 | 22.22° C | 53% | 1001 hPa | 0 mm | - | 46 W/m² | - |
| 1777936654 | 22.22° C | 52% | 1001 hPa | 0 mm | - | 49 W/m² | - |
| 1777936351 | 22.22° C | 52% | 1001.1 hPa | 0 mm | - | 51 W/m² | - |
| 1777936046 | 22.22° C | 51% | 1001 hPa | 0 mm | - | 55 W/m² | - |
| 1777935745 | 22.22° C | 52% | 1001.2 hPa | 0 mm | - | 57 W/m² | - |
| 1777935444 | 22.78° C | 52% | 1001.2 hPa | 0 mm | - | 61 W/m² | - |
| 1777935140 | 22.78° C | 53% | 1001.2 hPa | 0 mm | - | 65 W/m² | - |
| 1777934837 | 22.22° C | 53% | 1001.4 hPa | 0 mm | - | 70 W/m² | - |
| 1777934534 | 22.78° C | 54% | 1001.3 hPa | 0 mm | - | 84 W/m² | - |
| 1777934230 | 22.22° C | 55% | 1001.4 hPa | 0 mm | - | 111 W/m² | - |
* Rain latest hour (hover to see other rain measurements)
** Current wind speed in m/s (hover to see current wind gust speed)